TimeAEST,TemperatureF,Dew PointF,Humidity,Sea Level PressureIn,VisibilityMPH,Wind Direction,Wind SpeedMPH,Gust SpeedMPH,PrecipitationIn,Events,Conditions,WindDirDegrees,DateUTC
12:00 AM,66,65,94,29.86,,Calm,Calm,,,,,,2012-10-08 14:00:00
12:00 AM,66.2,64.4,94,29.86,-9999.0,Calm,Calm,-,N/A,,Clear,0,2012-10-08 14:00:00
12:30 AM,66.2,64.4,94,29.86,-9999.0,Calm,Calm,-,N/A,,Clear,0,2012-10-08 14:30:00
1:00 AM,65,64,97,29.86,,Calm,Calm,,,,,,2012-10-08 15:00:00
1:00 AM,64.4,64.4,100,29.83,6.2,Calm,Calm,-,N/A,Fog,Shallow Fog,0,2012-10-08 15:00:00
1:30 AM,64.4,64.4,100,29.83,6.2,Calm,Calm,-,N/A,Fog,Shallow Fog,0,2012-10-08 15:30:00
2:00 AM,64.4,64.4,100,29.83,6.2,Calm,Calm,-,N/A,Fog,Shallow Fog,0,2012-10-08 16:00:00
2:30 AM,64.4,64.4,100,29.83,6.2,Calm,Calm,-,N/A,,Scattered Clouds,0,2012-10-08 16:30:00
3:00 AM,65,65,98,29.83,,Calm,Calm,,,,,,2012-10-08 17:00:00
3:00 AM,66.2,64.4,94,29.83,6.2,Calm,Calm,-,N/A,Fog,Shallow Fog,0,2012-10-08 17:00:00
3:30 AM,64.4,62.6,94,29.83,6.2,Calm,Calm,-,N/A,Fog,Shallow Fog,0,2012-10-08 17:30:00
4:00 AM,65,64,97,29.85,,Calm,Calm,,,,,,2012-10-08 18:00:00
4:00 AM,66.2,64.4,94,29.83,6.2,Calm,Calm,-,N/A,,Scattered Clouds,0,2012-10-08 18:00:00
4:30 AM,64.4,64.4,100,29.83,6.2,Calm,Calm,-,N/A,Fog,Shallow Fog,0,2012-10-08 18:30:00
5:00 AM,64.4,64.4,100,29.83,6.2,Calm,Calm,-,N/A,Fog,Shallow Fog,0,2012-10-08 19:00:00
5:30 AM,64.4,64.4,100,29.86,6.2,Calm,Calm,-,N/A,Fog,Shallow Fog,0,2012-10-08 19:30:00
6:00 AM,65,64,96,29.87,19,Calm,Calm,,,,Partly Cloudy,,2012-10-08 20:00:00
6:00 AM,64.4,64.4,100,29.86,6.2,Calm,Calm,-,N/A,,Partly Cloudy,0,2012-10-08 20:00:00
6:30 AM,66.2,66.2,100,29.86,6.2,Calm,Calm,-,N/A,,Partly Cloudy,0,2012-10-08 20:30:00
7:00 AM,69,67,91,29.90,,Calm,Calm,,,,,,2012-10-08 21:00:00
7:00 AM,69.8,66.2,88,29.89,6.2,Calm,Calm,-,N/A,,Partly Cloudy,0,2012-10-08 21:00:00
7:30 AM,71.6,64.4,78,29.89,6.2,ESE,6.9,-,N/A,,Partly Cloudy,120,2012-10-08 21:30:00
8:00 AM,75.2,64.4,69,29.92,6.2,SE,6.9,-,N/A,,Partly Cloudy,130,2012-10-08 22:00:00
8:30 AM,77.0,64.4,65,29.92,6.2,ESE,5.8,-,N/A,,Partly Cloudy,120,2012-10-08 22:30:00
9:00 AM,79,65,54,29.92,19,SE,6.9,,,,Partly Cloudy,140,2012-10-08 23:00:00
9:00 AM,78.8,64.4,61,29.92,6.2,SE,6.9,-,N/A,,Partly Cloudy,140,2012-10-08 23:00:00
9:30 AM,80.6,64.4,58,29.89,6.2,East,3.5,-,N/A,,Partly Cloudy,90,2012-10-08 23:30:00
10:00 AM,81,65,49,29.91,,NE,8.1,,,,,50,2012-10-09 00:00:00
10:00 AM,80.6,64.4,58,29.89,6.2,NE,8.1,-,N/A,,Partly Cloudy,50,2012-10-09 00:00:00
10:30 AM,82.4,66.2,58,29.89,-9999.0,NNE,9.2,-,N/A,,Clear,20,2012-10-09 00:30:00
11:00 AM,80.6,64.4,58,29.86,-9999.0,North,10.4,-,N/A,,Clear,10,2012-10-09 01:00:00
11:30 AM,80.6,64.4,58,29.86,-9999.0,NNE,10.4,-,N/A,,Clear,20,2012-10-09 01:30:00
12:00 PM,82,65,47,29.85,19,NNE,11.5,,,,Partly Cloudy,20,2012-10-09 02:00:00
12:00 PM,82.4,64.4,54,29.83,-9999.0,NNE,11.5,-,N/A,,Clear,20,2012-10-09 02:00:00
12:30 PM,80.6,64.4,58,29.83,-9999.0,NNE,11.5,-,N/A,,Clear,20,2012-10-09 02:30:00
1:00 PM,81,65,50,29.83,,NNE,11.5,,,,,20,2012-10-09 03:00:00
1:00 PM,80.6,66.2,61,29.83,-9999.0,NNE,11.5,-,N/A,,Clear,20,2012-10-09 03:00:00
1:30 PM,80.6,66.2,61,29.80,-9999.0,NNE,11.5,-,N/A,,Clear,20,2012-10-09 03:30:00
2:00 PM,82.4,66.2,58,29.80,-9999.0,North,10.4,-,N/A,,Clear,10,2012-10-09 04:00:00
2:30 PM,82.4,66.2,58,29.80,-9999.0,North,10.4,-,N/A,,Clear,10,2012-10-09 04:30:00
3:00 PM,82,67,52,29.80,19,NNE,11.5,,,,Partly Cloudy,20,2012-10-09 05:00:00
3:00 PM,82.4,68.0,62,29.80,-9999.0,NNE,11.5,-,N/A,,Clear,20,2012-10-09 05:00:00
3:30 PM,82.4,68.0,62,29.77,-9999.0,NNE,10.4,-,N/A,,Clear,20,2012-10-09 05:30:00
4:00 PM,81,68,55,29.80,,North,10.4,,,,,10,2012-10-09 06:00:00
4:00 PM,80.6,68.0,65,29.77,-9999.0,North,10.4,-,N/A,,Clear,10,2012-10-09 06:00:00
4:30 PM,80.6,68.0,65,29.77,6.2,North,9.2,-,N/A,,Partly Cloudy,360,2012-10-09 06:30:00
5:00 PM,78.8,68.0,69,29.80,6.2,North,9.2,-,N/A,,Partly Cloudy,360,2012-10-09 07:00:00
5:30 PM,78.8,68.0,69,29.80,6.2,North,8.1,-,N/A,,Partly Cloudy,360,2012-10-09 07:30:00
6:00 PM,76,68,70,29.81,,North,8.1,,,,,350,2012-10-09 08:00:00
6:00 PM,77.0,68.0,74,29.80,6.2,North,8.1,-,N/A,,Partly Cloudy,350,2012-10-09 08:00:00
6:30 PM,75.2,68.0,78,29.80,6.2,North,5.8,-,N/A,,Partly Cloudy,350,2012-10-09 08:30:00
7:00 PM,74,69,81,29.83,,NW,1.2,,,,,310,2012-10-09 09:00:00
7:00 PM,75.2,69.8,83,29.83,6.2,NW,1.2,-,N/A,,Partly Cloudy,310,2012-10-09 09:00:00
7:30 PM,73.4,69.8,88,29.83,6.2,NW,4.6,-,N/A,,Partly Cloudy,310,2012-10-09 09:30:00
8:00 PM,73.4,69.8,88,29.83,6.2,NW,2.3,-,N/A,,Partly Cloudy,310,2012-10-09 10:00:00
8:30 PM,73.4,69.8,88,29.83,6.2,NW,3.5,-,N/A,,Partly Cloudy,310,2012-10-09 10:30:00
9:00 PM,71,68,88,29.86,,NW,3.5,,,,,310,2012-10-09 11:00:00
9:00 PM,71.6,68.0,88,29.86,6.2,NW,3.5,-,N/A,,Partly Cloudy,310,2012-10-09 11:00:00
9:30 PM,69.8,68.0,94,29.86,-9999.0,Calm,Calm,-,N/A,,Clear,0,2012-10-09 11:30:00
10:00 PM,70,68,93,29.87,,Calm,Calm,,,,,,2012-10-09 12:00:00
10:00 PM,69.8,68.0,94,29.86,-9999.0,Calm,Calm,-,N/A,,Clear,0,2012-10-09 12:00:00
10:30 PM,68.0,66.2,94,29.86,-9999.0,Calm,Calm,-,N/A,,Clear,0,2012-10-09 12:30:00
11:00 PM,68.0,66.2,94,29.86,-9999.0,Calm,Calm,-,N/A,,Clear,0,2012-10-09 13:00:00
11:30 PM,68.0,68.0,100,29.86,-9999.0,Calm,Calm,-,N/A,,Clear,0,2012-10-09 13:30:00